Theta_e
303 303 303 303 303 303 303 303 303 303 304 305 306 306 307 310 312 304 302 304 299 293 294 298 300 294 294 295 292 293 290 290 288 285 282 282 279 283 284 285 285 284 282 279 281 277 277 290 287 280 283 285 285 285
302 303 302 302 302 302 303 302 303 303 305 306 306 306 307 309 311 309 299 304 304 296 295 297 299 300 300 299 295 293 289 289 290 289 288 285 280 282 283 281 291 284 287 284 283 282 290 291 286 289 288 284 285 285
302 302 302 302 302 302 302 302 303 304 305 305 306 306 307 309 311 309 301 301 299 294 294 294 293 302 302 300 303 292 291 295 298 301 293 287 287 286 285 280 285 290 293 286 285 287 288 288 289 289 288 285 289 293
300 300 301 301 301 301 301 302 302 303 304 305 306 307 308 308 309 309 300 301 298 294 287 291 300 298 304 301 301 302 299 301 298 295 291 290 289 290 284 286 284 287 288 287 285 288 287 289 288 288 286 288 292 293
300 300 300 301 301 301 301 301 301 302 303 304 305 307 308 309 309 307 303 302 301 294 289 290 295 297 298 298 299 301 300 297 295 291 288 290 291 292 289 288 280 287 283 284 282 286 284 285 288 289 285 290 291 292
300 300 300 300 300 300 301 301 301 302 303 304 306 307 309 309 306 301 295 299 303 300 291 286 292 293 297 298 300 299 300 296 296 293 294 296 295 294 289 280 286 287 289 290 287 287 286 288 289 289 289 291 293 294
300 299 300 300 300 300 300 301 301 302 304 306 306 308 309 306 302 296 296 300 302 302 292 287 288 294 299 299 299 298 298 298 297 298 296 292 294 297 291 284 283 291 292 291 293 291 287 289 286 288 291 292 294 295
299 299 300 300 300 300 300 300 301 302 303 307 307 306 305 305 303 298 301 304 302 297 295 287 287 289 298 296 294 301 299 300 301 298 296 290 291 290 289 289 292 291 291 290 292 291 289 290 289 289 291 291 291 292
299 299 300 300 300 300 300 300 301 301 303 304 305 305 302 299 296 297 305 306 302 296 290 289 287 285 296 297 298 301 302 295 302 297 292 291 289 286 290 290 290 291 289 290 292 290 290 288 288 289 289 289 289 290
299 299 300 300 300 300 300 300 300 301 302 304 301 297 294 299 305 303 298 294 292 293 293 286 292 288 291 290 289 293 295 294 289 294 297 289 286 291 291 291 291 291 293 294 291 289 289 287 286 287 286 289 290 291
299 299 299 299 299 300 300 300 300 301 303 298 295 294 299 305 299 296 291 288 289 286 290 290 290 288 295 288 288 294 290 294 286 288 288 284 282 290 291 291 291 295 295 294 293 292 290 289 287 287 286 289 290 291
299 299 299 299 299 299 299 299 299 295 295 295 295 299 298 295 293 289 288 290 288 287 289 287 293 292 294 300 294 293 292 291 285 293 288 282 289 291 291 291 292 294 295 294 293 291 290 289 288 287 288 290 290 292
299 298 298 298 299 299 299 299 300 301 299 298 296 292 291 289 284 285 282 287 288 292 295 298 295 297 299 299 295 293 290 287 294 288 286 289 291 292 291 291 291 294 295 294 293 292 291 289 288 288 288 291 292 292
299 298 298 298 298 299 299 299 300 298 294 292 289 282 285 284 286 288 287 291 297 298 296 297 297 294 296 290 293 291 293 293 287 282 286 292 291 292 292 293 294 293 293 293 292 292 290 289 288 288 290 292 292 292
299 298 298 298 298 298 299 299 300 295 294 289 287 282 284 288 290 292 294 295 298 300 297 296 295 293 290 291 293 293 290 287 287 283 289 291 292 292 291 292 293 293 293 293 293 292 291 291 290 290 291 292 293 294
298 297 295 298 298 298 299 299 298 292 289 288 287 286 287 287 287 290 291 290 295 296 298 295 290 289 291 293 291 290 287 283 287 291 292 292 291 291 291 292 292 292 293 294 293 293 292 292 291 291 292 294 294 294
297 292 297 298 299 299 300 292 291 290 286 286 285 288 288 288 287 287 287 289 295 294 290 290 287 288 295 289 290 292 288 292 293 293 293 292 291 291 292 293 295 293 292 292 293 293 293 294 295 293 290 293 294 295
292 293 297 298 297 295 292 293 288 286 284 286 284 286 289 290 289 290 292 294 293 292 292 288 291 287 288 286 290 296 294 298 301 298 294 293 293 293 294 292 294 294 292 292 292 294 293 293 293 293 293 294 293 294
294 295 296 298 297 293 287 289 289 282 284 286 288 289 288 289 290 291 291 292 292 294 295 293 289 288 289 295 297 299 300 298 298 296 294 295 294 294 294 294 295 293 292 292 291 291 292 293 294 294 295 295 292 292
299 298 298 299 298 290 287 287 291 286 283 284 286 286 286 287 290 290 291 292 292 295 292 290 289 291 293 297 300 301 303 302 301 296 294 294 295 295 294 295 294 294 293 292 292 292 292 292 293 295 294 295 294 292
297 297 298 297 294 292 288 287 286 288 288 287 288 287 288 287 287 287 288 291 290 291 289 293 293 294 297 298 303 302 302 303 302 300 296 294 295 295 294 294 294 293 292 293 292 292 292 292 294 295 295 295 295 294
295 298 294 294 288 288 286 288 285 287 288 287 287 287 285 286 287 289 292 289 290 292 293 294 295 296 296 298 302 302 303 306 305 304 298 296 296 294 294 296 294 294 293 294 294 293 293 293 293 294 294 294 293 294
296 293 289 289 285 285 281 288 283 283 280 282 286 284 285 287 290 293 288 290 292 295 296 297 298 298 299 302 303 304 305 305 303 302 301 300 299 298 297 297 297 295 293 292 295 294 293 292 294 294 294 293 293 292
296 287 286 284 282 276 285 283 287 286 284 282 284 284 287 291 295 292 288 290 295 297 298 298 299 297 301 301 299 300 302 303 303 304 301 299 297 296 298 298 298 298 297 295 294 293 292 292 293 293 294 294 293 293
282 283 284 278 284 281 282 283 283 284 282 285 285 286 289 293 289 290 289 293 296 297 299 299 299 298 298 299 301 300 303 303 302 299 300 301 299 298 299 296 296 297 297 295 293 293 292 292 293 293 293 292 292 292
275 283 281 284 283 282 282 281 283 284 286 285 287 291 293 290 288 289 292 294 296 298 298 298 297 297 297 301 300 299 302 305 303 302 299 302 302 300 298 295 294 294 298 298 295 294 293 293 292 292 293 292 289 293
279 283 286 290 288 288 286 288 290 288 286 286 289 290 289 288 287 292 294 298 298 303 303 303 302 302 301 300 301 303 307 307 306 304 303 305 303 302 301 300 297 297 298 298 296 295 294 293 292 292 292 291 292 292
285 287 285 289 288 290 287 287 288 287 288 291 291 289 289 290 287 296 297 303 304 304 302 303 304 305 303 303 304 304 304 305 308 307 303 302 303 303 302 302 302 294 300 299 298 296 295 294 293 292 292 291 291 293
286 289 290 287 288 289 289 288 289 291 295 293 292 292 292 299 302 302 303 303 303 302 300 299 300 303 302 302 303 303 306 305 302 299 296 296 297 299 302 299 297 302 302 298 290 294 296 295 293 293 294 293 293 294
288 292 289 289 288 287 290 293 290 292 294 296 299 299 300 301 301 302 303 301 300 299 300 300 299 300 300 299 300 301 304 304 302 299 296 296 298 301 300 300 299 299 301 300 297 293 286 290 288 292 293 294 293 293
294 293 290 290 288 290 292 293 295 297 296 296 298 295 295 298 302 303 304 303 302 302 301 301 301 301 301 301 300 298 298 301 300 300 300 300 302 301 301 301 301 301 301 300 298 296 295 293 292 294 294 295 296 293
293 292 292 290 290 294 297 294 295 295 296 295 291 294 294 295 295 298 304 304 300 298 294 301 302 303 305 302 301 300 294 301 302 303 303 301 301 302 304 304 304 304 303 300 298 297 296 296 294 295 295 295 296 297
292 292 293 292 291 290 292 292 293 293 291 291 292 292 293 294 293 297 303 306 303 304 304 305 306 307 305 302 300 299 296 295 290 286 287 287 286 291 301 302 303 303 302 301 301 298 297 296 294 294 294 292 291 295
Wind_Speed
6 7 8 9 11 12 14 15 16 17 17 18 18 18 17 16 14 5 4 4 4 4 7 12 8 5 5 8 7 6 8 4 4 6 2 3 1 4 5 4 5 5 6 3 4 5 7 11 12 5 11 21 24 26
7 8 9 10 11 12 13 15 17 17 18 18 19 18 18 17 13 5 3 3 2 4 7 5 12 19 18 25 9 5 5 0 4 2 1 2 3 3 4 5 2 4 2 5 3 6 18 13 14 13 16 20 21 24
7 8 9 11 12 13 14 15 17 19 19 19 20 19 18 17 15 5 3 2 1 3 6 5 9 14 12 19 15 4 3 6 3 4 3 3 4 1 4 5 4 4 2 4 5 2 8 15 13 16 20 20 24 22
7 8 10 11 13 14 15 17 17 19 19 20 20 19 18 17 17 16 3 2 2 3 5 7 8 16 11 6 11 17 10 0 5 3 3 3 3 5 4 6 4 4 2 3 7 5 14 3 15 19 24 22 25 28
8 9 10 11 13 14 15 17 18 19 19 20 22 21 20 21 15 2 1 2 2 1 6 8 16 18 10 7 12 15 13 7 3 1 2 4 4 2 4 1 4 3 4 2 5 6 4 10 15 18 16 20 24 22
7 9 10 11 13 14 15 16 18 19 19 22 22 24 21 7 6 3 2 1 3 3 4 6 6 10 10 4 6 9 10 4 4 4 4 4 5 2 3 3 5 2 4 3 4 2 6 10 13 14 15 18 18 20
8 9 10 11 13 14 15 17 19 19 21 24 19 14 3 7 2 1 2 1 1 2 2 6 7 7 7 6 0 3 3 3 5 3 4 4 4 5 3 4 4 6 6 2 2 5 5 5 7 14 13 16 14 16
9 10 11 11 12 13 15 16 19 18 21 19 5 5 3 2 5 3 1 9 3 2 2 4 7 6 4 4 2 2 3 2 2 2 3 3 1 2 5 6 3 4 3 0 1 4 2 5 6 9 10 14 14 16
9 11 12 13 13 13 14 16 18 18 18 17 11 8 2 1 1 2 6 4 1 2 3 3 3 5 7 4 3 3 2 3 2 3 5 4 2 5 6 2 5 5 3 3 3 3 3 3 6 7 10 14 13 13
10 11 12 12 13 13 13 14 17 18 20 14 2 1 2 0 3 1 2 1 1 2 3 4 3 5 3 3 5 1 0 3 3 6 2 4 4 2 3 5 5 4 2 3 2 2 1 2 3 4 7 7 9 10
10 11 12 12 12 12 13 14 15 18 9 3 2 2 3 2 1 2 2 3 2 4 4 5 6 5 3 3 4 3 3 4 2 6 5 2 3 4 6 5 4 4 4 5 5 4 5 4 4 4 5 6 7 8
11 13 13 13 13 12 13 12 12 4 2 4 6 6 3 2 3 4 3 3 4 4 4 4 5 6 5 4 4 4 4 2 6 2 3 3 2 7 8 6 5 4 5 5 5 5 5 6 4 5 5 6 5 7
12 13 12 13 12 12 13 13 13 12 9 2 2 3 2 2 4 5 5 4 4 4 4 3 3 3 3 3 4 3 3 5 1 1 3 4 5 6 6 5 6 7 6 7 6 6 6 6 6 5 6 4 6 6
13 13 14 14 13 13 13 12 12 7 2 2 3 4 5 5 5 6 5 4 4 3 8 5 1 4 3 3 2 4 5 2 1 1 5 4 7 8 6 5 8 7 6 8 6 7 6 6 6 6 4 5 5 6
13 12 16 15 16 15 14 12 12 2 2 3 3 5 6 5 6 5 6 5 3 4 3 4 2 1 3 3 2 5 4 3 5 5 3 5 8 8 6 6 8 7 5 7 7 7 7 6 6 6 6 4 4 5
9 11 10 17 16 14 13 8 2 3 3 4 6 4 6 6 8 3 3 5 3 6 3 1 2 3 4 3 6 7 4 3 3 2 3 6 7 6 6 6 6 6 5 7 7 7 8 8 7 7 5 5 6 5
9 5 4 8 7 7 7 1 2 5 5 5 5 5 10 8 9 10 9 6 2 2 2 1 3 4 3 4 4 4 2 3 0 3 4 6 8 7 7 6 8 7 5 6 8 8 8 7 5 11 7 5 6 3
7 5 12 13 10 4 2 4 3 5 7 8 7 9 7 7 8 9 10 5 1 1 2 5 1 3 4 3 3 4 3 2 2 5 5 5 7 7 7 7 6 8 6 6 5 7 8 7 6 6 6 8 8 4
9 7 15 17 7 2 3 4 4 5 9 4 6 8 8 8 10 12 10 9 5 7 3 3 5 4 4 3 3 1 4 2 1 2 3 5 8 9 7 7 8 7 8 7 6 5 6 9 6 5 5 6 6 4
20 20 17 16 10 4 5 4 1 5 5 4 5 10 9 9 11 9 11 9 5 3 5 6 6 4 4 2 3 1 2 2 2 2 2 3 4 6 8 8 7 8 7 6 5 7 5 4 4 6 5 5 5 5
15 12 19 13 2 4 3 3 4 4 5 5 5 4 5 4 7 11 12 9 6 7 6 5 4 5 7 4 3 3 3 4 4 4 5 5 5 6 5 4 4 5 6 6 7 6 7 6 7 7 7 5 5 5
4 16 3 8 4 5 5 4 4 3 4 4 5 5 6 5 6 8 5 6 10 10 6 6 8 7 5 8 7 6 5 6 9 9 8 7 7 6 6 7 6 6 6 8 8 8 8 6 6 7 8 8 7 6
12 5 4 5 5 6 6 4 5 5 5 5 4 6 5 4 5 3 5 5 7 9 8 9 11 8 8 6 4 7 7 6 6 6 10 9 9 7 7 7 8 8 6 5 7 7 7 8 8 7 6 5 4 4
9 5 5 7 5 6 4 5 5 4 5 6 4 5 4 3 5 4 4 5 9 4 6 11 7 6 6 8 7 9 8 5 4 7 8 9 7 6 9 8 8 7 8 6 6 6 5 5 9 7 7 8 7 7
5 5 4 6 5 4 6 5 6 5 7 8 10 7 4 4 3 5 4 4 4 4 8 8 8 9 9 9 9 5 2 5 5 5 7 9 7 4 5 4 6 7 6 7 5 7 5 5 7 7 6 5 7 8
4 8 9 9 5 6 6 5 7 9 6 4 5 4 2 2 5 7 3 3 3 4 8 9 10 8 5 6 5 3 1 1 3 5 2 7 9 9 9 6 4 3 5 9 9 9 8 7 7 8 7 8 8 8
4 6 6 5 4 5 4 4 2 1 2 5 4 4 4 5 5 2 3 3 3 3 4 5 6 8 7 5 4 4 4 2 3 3 3 3 6 8 8 9 8 6 7 9 9 11 11 10 8 7 6 5 6 6
5 4 5 6 4 4 4 3 4 4 6 5 1 3 3 3 3 3 2 4 3 3 2 4 6 8 6 5 6 7 4 2 4 4 4 4 3 4 5 4 5 16 10 10 10 9 10 10 8 7 6 6 5 6
5 4 3 7 6 6 6 6 5 4 3 2 2 2 0 2 2 2 3 4 2 4 4 4 4 4 5 3 3 3 5 4 3 3 5 4 3 3 1 3 4 7 8 9 10 12 14 12 10 8 9 8 7 6
4 4 4 4 4 4 3 1 2 3 2 2 3 3 2 2 3 3 5 7 5 4 3 2 2 3 3 4 2 2 2 2 2 4 5 4 6 4 4 4 4 4 6 9 9 6 6 5 4 4 5 4 4 5
4 3 3 4 4 5 10 10 5 6 3 3 1 3 5 1 2 7 9 4 4 6 6 5 6 5 4 4 1 1 5 4 6 9 6 4 5 3 2 3 3 4 6 10 11 11 10 8 6 7 7 7 8 8
5 5 3 3 4 2 5 5 5 5 3 2 3 3 5 4 4 4 8 6 4 4 4 5 6 5 4 3 5 7 8 5 6 5 7 5 4 5 4 1 4 6 6 8 5 7 11 8 6 7 7 8 8 9
3 4 4 4 3 2 2 2 3 3 4 4 4 5 4 3 3 3 4 5 3 2 4 6 5 4 4 4 7 7 8 6 5 5 8 7 5 5 4 3 4 5 7 6 5 5 10 11 8 7 8 6 6 7
Wind_Direction
318 328 330 329 327 328 330 330 330 330 330 328 333 329 324 319 327 154 257 209 191 228 269 262 272 231 280 283 276 302 347 339 14 28 51 308 281 271 309 268 308 306 312 316 298 282 297 10 344 350 295 292 295 299
324 329 324 323 322 322 324 325 321 320 319 322 324 325 321 314 318 170 257 252 190 224 262 256 266 254 257 257 255 230 226 256 243 75 159 310 303 306 276 289 219 290 217 293 226 262 296 336 314 307 306 302 304 304
322 323 324 323 320 325 322 320 319 319 322 323 321 318 317 313 307 232 214 211 73 272 268 264 260 277 225 230 208 196 266 208 177 164 181 223 262 215 278 259 256 255 151 258 316 244 313 319 331 321 321 314 313 323
314 321 322 322 325 326 327 323 321 317 320 320 320 316 314 313 304 305 160 172 148 287 273 275 296 278 272 259 190 212 222 181 138 109 176 229 230 191 246 245 217 227 8 301 260 318 315 306 336 328 323 327 337 340
311 319 322 323 324 328 327 323 323 319 319 319 319 317 315 304 303 102 114 186 189 218 293 295 294 275 255 224 230 216 202 210 117 146 167 236 235 210 261 357 273 172 217 320 288 330 280 293 318 327 327 337 337 341
305 314 317 323 323 324 325 327 325 322 321 318 321 316 308 294 113 66 317 22 227 179 298 309 296 287 307 265 247 170 186 158 146 167 214 240 247 173 269 263 247 209 232 184 256 280 277 294 313 331 329 336 342 356
300 309 316 318 316 318 323 328 328 329 328 314 313 322 38 130 41 138 264 254 334 127 269 293 286 276 292 258 220 112 118 170 141 208 225 222 262 172 241 250 237 226 253 217 277 310 309 357 333 320 341 344 354 11
292 299 302 306 310 319 319 327 328 331 338 339 1 350 8 349 302 293 266 218 153 247 241 274 277 308 302 318 290 155 115 85 224 210 297 217 348 125 254 251 213 229 152 151 21 80 322 316 349 342 1 355 13 19
281 290 298 300 305 311 318 328 325 332 326 326 328 311 293 230 253 265 6 133 145 233 272 247 277 290 343 310 310 5 95 175 19 230 241 123 199 224 236 134 122 181 214 192 134 98 62 33 5 2 27 6 17 19
276 285 293 298 306 311 319 322 325 331 320 312 301 272 249 193 345 343 275 195 180 221 234 250 249 264 341 295 290 332 355 190 220 231 136 163 236 85 93 125 132 145 116 172 219 234 122 67 60 36 38 25 12 20
276 281 286 293 298 307 314 322 330 332 315 342 343 264 308 307 256 219 260 217 172 242 220 241 235 253 250 224 257 219 215 190 239 265 141 247 272 172 148 125 131 116 92 76 84 69 79 104 121 105 80 45 41 35
278 280 284 289 294 301 305 315 325 346 303 287 289 292 267 256 221 245 228 191 217 253 212 210 213 213 262 231 220 265 225 111 248 188 104 275 261 131 141 148 147 114 120 108 93 104 97 109 113 104 93 80 51 52
265 269 274 280 286 295 300 307 314 311 311 280 224 251 234 215 237 230 217 200 227 205 258 252 258 227 288 269 259 261 270 234 61 85 221 236 152 143 144 142 120 115 114 118 98 103 101 108 108 105 106 83 89 66
269 274 276 278 281 281 286 295 300 321 312 253 254 260 232 209 231 212 245 303 252 357 325 307 30 266 253 301 310 287 249 93 176 274 236 189 166 156 156 157 137 145 144 140 126 125 123 121 119 107 102 113 99 99
263 271 273 276 273 275 280 284 290 194 255 254 256 245 243 263 291 281 254 264 317 248 252 286 234 242 277 277 252 288 267 229 206 219 230 148 146 150 154 135 139 137 140 135 138 133 133 138 140 123 127 108 111 107
261 277 261 264 269 268 267 281 214 161 258 226 230 260 266 274 275 240 280 288 289 276 283 19 298 287 258 231 206 226 232 198 241 212 134 126 142 144 138 136 140 145 150 138 138 142 145 157 153 142 150 137 143 131
238 233 218 275 279 254 253 202 236 214 223 225 230 230 253 266 262 271 285 262 271 244 235 176 263 258 279 246 250 8 357 289 1 94 125 135 150 150 140 141 149 138 140 139 138 141 148 145 170 149 162 183 151 156
230 239 246 247 256 304 233 208 241 237 241 229 236 230 233 236 261 267 270 279 351 314 136 218 274 250 244 283 295 345 307 286 271 133 144 132 133 141 146 150 137 142 145 141 143 143 149 156 131 137 143 148 164 206
222 217 231 253 243 247 244 223 202 252 239 245 245 242 244 253 249 260 271 275 241 249 202 158 233 221 230 207 199 326 323 6 348 107 125 146 146 152 154 149 154 151 157 160 150 154 162 168 171 167 166 159 162 184
228 225 228 233 212 182 234 237 255 254 260 249 264 252 246 244 255 251 255 251 226 212 214 207 217 215 215 263 159 153 270 229 322 89 128 203 164 158 171 165 166 170 160 155 153 154 163 168 172 167 176 175 171 188
227 217 218 216 206 197 246 241 229 236 260 246 263 240 247 240 240 244 249 242 239 206 218 205 227 236 241 247 222 163 221 217 226 200 187 187 188 167 170 189 174 144 158 172 175 187 180 185 176 179 176 185 183 192
176 171 116 169 180 206 240 207 239 268 256 252 289 254 254 252 255 248 231 217 235 232 206 203 222 228 240 245 238 237 222 195 232 249 179 137 176 179 185 182 171 190 180 182 181 184 192 190 170 173 178 189 184 189
139 112 130 159 172 204 253 153 222 212 237 257 213 240 260 266 244 231 239 220 237 221 205 208 219 211 223 243 264 269 254 253 258 215 175 179 189 186 178 183 185 187 190 198 185 179 186 181 185 168 178 168 169 173
115 147 165 179 177 208 202 221 203 236 221 215 243 244 238 224 281 259 250 231 235 192 200 215 200 204 219 234 248 252 246 218 236 224 176 162 172 185 183 186 190 192 191 171 171 175 166 172 173 171 175 187 180 190
121 169 172 201 200 216 229 217 198 222 241 239 235 244 248 177 269 269 246 257 176 194 219 207 196 201 213 223 235 232 236 172 194 186 182 173 177 153 179 184 188 187 155 142 155 167 167 159 168 169 172 166 160 169
173 189 195 196 200 206 211 221 212 214 234 220 245 249 340 205 226 249 247 298 260 206 189 185 188 193 199 191 153 154 170 37 213 145 199 181 174 177 180 174 178 238 190 165 154 164 166 168 167 164 170 174 162 162
232 218 195 222 217 213 251 264 309 169 227 253 210 207 199 247 238 315 322 291 305 340 308 124 125 125 130 117 113 120 76 4 152 160 228 241 198 173 171 179 189 199 158 159 158 161 166 169 170 170 162 163 167 163
242 269 232 190 213 262 226 201 254 223 222 231 224 226 218 336 293 284 242 261 239 305 12 44 103 133 137 146 149 137 146 220 48 10 1 41 90 135 172 197 177 147 163 165 163 159 162 166 168 169 165 170 175 173
232 234 241 256 228 199 213 212 224 220 317 336 300 301 334 250 216 259 279 284 96 76 68 78 47 71 77 76 68 70 124 140 74 110 133 113 61 324 16 129 140 162 159 153 161 161 166 165 168 170 171 180 185 175
243 194 231 260 250 227 224 320 318 351 349 297 298 279 264 337 329 334 23 30 44 70 78 86 104 84 115 125 116 346 308 272 221 170 149 172 206 206 172 146 159 146 142 153 150 138 88 124 92 131 152 157 156 168
257 157 240 225 242 221 226 236 242 255 244 287 289 327 285 251 22 33 27 11 32 30 31 28 51 40 65 86 153 177 85 20 85 83 87 79 57 51 282 220 182 151 149 157 160 160 167 165 169 172 174 179 187 190
180 210 244 278 269 231 137 169 194 198 150 121 347 356 356 24 55 16 357 0 42 47 351 38 44 11 301 304 69 80 93 81 62 60 65 58 36 7 350 22 129 118 114 107 113 155 162 161 166 171 183 197 203 196
195 195 221 265 258 271 288 118 94 85 51 54 41 8 354 7 79 352 327 11 359 73 36 16 347 323 46 88 118 99 88 91 102 83 74 67 55 30 26 52 89 106 120 118 126 180 173 168 168 176 170 194 235 173